Tracking 23583 objects as of 28-Jul-2021
HD Live streaming from Space Station
objects crossing your sky now

HELIOS 1A

Track HELIOS 1A now!
10-day predictions
HELIOS 1A is classified as:


NORAD ID: 23605
Int'l Code: 1995-033A
Perigee: 591.6 km
Apogee: 608.7 km
Inclination: 98.2 °
Period: 96.5 minutes
Semi major axis: 6971 km
RCS: Unknown
Launch date: July 7, 1995
Source: France (FR)
Launch site: FRENCH GUIANA (FRGUI)

Optical reconnaissance; cannot see through clouds or at night.
aabbcc
Your satellite tracking list
Your tracking list is empty




NASA's NSSDC Master Catalog

Two Line Element Set (TLE):
1 23605U 95033A   21204.97900727 0.00000500  00000-0  49864-4 0    09
2 23605  98.1756 329.2667 0012296 193.0311 167.0093 14.91570145    00
Source of the keplerian elements: McCants